EST,Max TemperatureF,Mean TemperatureF,Min TemperatureF,Max Dew PointF,MeanDew PointF,Min DewpointF,Max Humidity, Mean Humidity, Min Humidity, Max Sea Level PressureIn, Mean Sea Level PressureIn, Min Sea Level PressureIn, Max VisibilityMiles, Mean VisibilityMiles, Min VisibilityMiles, Max Wind SpeedMPH, Mean Wind SpeedMPH, Max Gust SpeedMPH,PrecipitationIn, CloudCover, Events, WindDirDegrees
2012-12-1,41,37,33,37,35,32,100,89,81,30.48,30.43,30.40,10,6,0,6,0,,0.00,8,,61
2012-12-2,48,42,35,46,41,36,100,96,82,30.41,30.26,30.12,8,3,0,6,0,,0.02,7,,168
2012-12-3,64,52,39,50,46,39,100,86,59,30.25,30.20,30.12,10,6,0,7,0,,0.00,4,,264
2012-12-4,66,56,46,55,51,45,100,86,64,30.25,30.15,29.97,10,7,0,8,1,,0.06,4,,170
2012-12-5,57,44,32,52,34,18,88,62,45,30.27,30.09,29.94,10,10,7,15,6,29,0.00,3,,280
2012-12-6,39,32,24,23,19,18,86,63,45,30.37,30.30,30.26,10,10,7,6,1,,0.00,0,,343
2012-12-7,39,31,23,37,32,19,100,95,86,30.25,30.13,30.01,10,5,1,0,0,,0.11,6,,-1
2012-12-8,48,44,39,46,43,37,100,98,93,30.02,29.94,29.88,5,2,0,0,0,,0.03,8,,-1
2012-12-9,44,42,39,45,39,36,100,94,81,30.25,30.13,29.99,10,5,0,9,1,,0.11,7,,51
2012-12-10,55,48,41,55,49,41,100,100,94,29.98,29.71,29.56,5,2,0,9,0,,0.00,8,,216
2012-12-11,48,39,28,46,33,27,93,74,49,30.20,29.94,29.63,10,10,4,14,4,24,0.00,5,,289
2012-12-12,41,34,26,28,26,25,100,79,53,30.43,30.35,30.20,10,10,6,7,0,,0.00,0,,288
2012-12-13,44,34,23,28,24,21,100,76,39,30.45,30.40,30.33,10,9,5,6,0,,0.00,0,,48
2012-12-14,48,34,19,27,23,18,100,73,40,30.33,30.25,30.18,10,8,5,9,1,,0.00,0,,215
2012-12-15,44,34,24,36,29,23,100,80,53,30.32,30.25,30.17,10,8,5,9,0,,0.00,0,,116
2012-12-16,50,44,39,46,41,36,100,89,81,30.18,30.01,29.89,10,8,2,8,1,,0.07,7,,77
2012-12-17,42,40,39,41,41,39,100,99,93,29.89,29.81,29.59,10,3,0,8,1,,0.11,8,,70
2012-12-18,53,46,39,46,40,28,100,84,65,29.71,29.57,29.49,10,7,0,15,4,31,0.01,6,,242
2012-12-19,46,40,32,30,28,27,80,63,49,30.15,29.90,29.71,10,10,10,15,6,23,0.00,1,,267
2012-12-20,44,34,26,41,29,25,100,79,65,30.20,30.06,29.64,10,9,3,16,2,28,0.01,2,,105
2012-12-21,55,44,33,54,35,27,100,79,61,29.61,29.32,29.16,10,8,2,24,13,33,0.82,7,,207
2012-12-22,39,36,32,30,23,19,93,61,48,29.90,29.65,29.38,10,10,4,21,11,31,0.00,7,,248
2012-12-23,41,32,24,23,21,16,86,62,36,30.00,29.93,29.88,10,10,10,14,6,20,0.00,2,,233
2012-12-24,33,26,19,27,21,18,100,82,64,30.08,30.03,29.97,10,10,7,0,0,,0.00,0,,-1
2012-12-25,,,,,,,,,,,,,,,,,,,,,,
2012-12-26,35,32,28,32,28,19,100,87,69,30.16,29.79,29.43,10,6,1,17,9,32,0.26,7,,63
2012-12-27,37,34,32,34,27,21,93,78,64,29.91,29.60,29.33,10,9,2,18,12,30,0.00,8,,288
2012-12-28,37,30,23,25,22,19,93,71,56,30.10,30.04,29.91,10,10,9,13,5,20,0.00,2,,280
2012-12-29,32,28,23,30,26,21,100,87,75,30.04,29.76,29.54,10,7,0,0,0,,0.11,5,,-1
2012-12-30,35,30,26,23,18,14,75,58,48,30.22,29.99,29.67,10,10,8,17,4,31,0.00,3,,276
2012-12-31,37,32,26,27,21,16,74,63,52,30.22,30.09,29.92,10,10,10,10,2,16,0.00,3,,216